Location: Étouvelles
(49.5207°N, 3.5808°E)
Time: 01:00:37
(UTC+00:00)

Cosmos 1190 Rocket - Pass Details

Date: 03 February 2023
Orbit: 756 x 778 km, 74.1° (Epoch: 21 March)

Event Time Altitude Azimuth Distance (km) Brightness Sun altitude
Rises 17:33:38 0° 191° (S) 3,248 7.6 -8.3°
Reaches altitude 10° 17:36:01 10° 188° (S) 2,323 6.8 -8.7°
Maximum altitude 17:41:14 63° 109° (ESE) 868 4.1 -9.5°
Drops below altitude 10° 17:46:27 10° 29° (NNE) 2,330 6.1 -10.4°
Sets 17:48:51 0° 26° (NNE) 3,259 6.9 -10.7°
Enters shadow 17:48:55 - 26° (NNE) 3,285 6.9 -10.8°
